Wind_Speed
6 4 6 11 12 13 12 10 7 3 2 4 4 4 5 5 5 5 4 3 5 4 6 9 11 13 9 9 13 13 14 13 12 13 13 13 13 13 15 15 16 17 15 17 23 27 29 31 31 31 30 31 32 32 33 33 34 35 34 34 34 34 33 33 32 32 31 31 30 29 30 30 30 28 26 25 24 23 21 20 19 19 18 18 18 17
6 7 12 15 11 8 7 7 7 6 7 3 2 3 4 5 5 5 4 2 3 3 5 7 9 13 10 9 11 13 14 14 15 16 15 16 16 14 16 17 17 14 11 14 19 24 28 29 31 31 30 32 33 33 34 35 35 36 36 36 36 35 34 35 35 35 34 34 34 33 32 32 31 29 29 27 26 24 22 20 19 19 19 20 19 18
6 10 15 12 7 6 6 7 9 9 9 7 4 3 3 4 3 5 5 1 2 3 4 5 7 11 10 8 11 14 15 15 17 19 18 19 18 15 16 17 16 13 12 14 17 21 27 30 32 32 31 33 34 34 35 36 36 36 36 37 36 35 36 36 36 36 36 36 36 34 32 31 29 28 29 28 26 24 23 21 20 19 20 20 20 19
7 10 13 9 7 8 8 7 9 8 8 7 6 5 4 4 2 4 4 1 1 4 4 4 5 7 7 5 9 15 17 16 16 18 18 18 19 20 20 18 17 17 16 16 17 18 24 28 31 32 32 33 33 34 36 37 37 36 37 37 36 36 37 37 37 37 37 35 33 32 30 27 25 24 24 25 25 24 23 23 22 21 20 20 20 20
7 7 7 10 8 9 9 8 9 7 6 8 8 8 6 5 5 4 3 3 3 3 2 4 2 5 4 5 7 11 13 14 14 15 14 14 17 17 17 15 16 18 17 17 18 18 20 25 30 33 33 33 33 35 37 38 38 37 38 38 38 37 37 37 37 37 35 32 30 29 26 22 21 20 19 21 23 24 24 25 25 23 21 20 20 20
9 6 7 13 12 12 11 10 10 8 5 6 10 11 8 6 5 3 3 4 4 4 3 3 3 6 4 6 9 8 10 12 11 13 15 15 15 14 12 13 15 17 17 17 18 19 19 23 28 31 33 33 34 37 38 39 39 38 38 39 39 38 38 37 37 36 34 32 30 29 26 23 21 21 21 23 25 26 27 27 26 24 22 20 20 21
7 7 7 12 15 14 12 10 9 10 6 6 8 9 8 7 5 3 1 1 1 4 4 2 4 5 5 5 9 9 12 15 13 14 18 16 14 14 14 15 15 15 15 15 16 17 18 21 24 28 33 36 37 38 39 38 39 39 39 39 40 38 38 37 37 36 35 33 32 31 30 29 27 25 26 29 30 30 29 28 26 25 23 22 21 21
7 9 8 10 12 12 11 10 10 11 8 6 5 9 8 7 7 5 3 4 3 4 5 2 4 3 4 5 7 9 12 15 15 16 18 16 15 16 16 16 17 17 17 16 16 17 18 21 26 29 35 38 38 37 36 37 39 40 40 39 40 39 38 37 37 36 36 35 34 33 32 31 29 29 28 30 30 29 29 28 27 26 25 23 23 23
8 12 11 10 9 9 11 11 12 13 9 5 7 11 9 9 8 6 4 5 2 3 6 4 4 3 5 5 5 6 11 14 16 18 18 17 17 18 18 17 17 18 18 17 17 18 19 23 29 33 35 37 35 35 36 38 39 39 39 38 39 39 38 37 37 37 38 37 36 34 33 30 30 30 28 27 27 27 26 26 27 26 25 24 24 24
5 9 11 11 9 7 9 10 11 13 10 4 7 9 8 8 7 6 6 4 2 4 10 7 4 4 6 5 4 4 8 12 13 15 16 17 19 19 18 18 18 16 15 16 17 18 20 25 31 33 33 34 34 36 37 37 36 37 37 37 38 39 38 37 38 38 38 38 36 34 33 32 30 29 27 26 25 25 25 25 26 26 26 25 25 25
5 4 9 10 9 6 6 7 9 13 11 5 6 5 4 4 4 4 4 3 3 8 11 9 7 5 6 5 6 6 6 8 9 11 13 15 17 18 17 17 17 16 14 15 16 16 19 25 29 29 30 33 35 36 35 35 36 36 37 37 38 39 38 37 38 39 39 38 37 35 34 34 32 30 27 26 25 25 26 26 27 27 26 26 26 26
6 6 5 6 8 8 6 5 7 11 11 7 5 5 2 1 1 2 1 3 7 10 8 8 7 7 9 7 6 7 7 10 11 12 14 16 17 17 17 17 17 16 16 16 15 15 15 18 22 27 30 32 33 34 34 36 36 36 37 38 38 38 38 38 38 39 39 38 38 36 36 35 34 31 29 28 28 28 28 29 28 27 26 27 26 26
6 8 5 3 7 10 8 5 5 7 9 8 5 6 5 2 1 4 3 3 7 7 4 7 7 7 10 9 7 9 9 12 13 13 15 17 19 19 19 18 16 15 16 16 15 14 14 15 18 23 28 30 32 34 35 36 36 36 37 38 38 38 39 38 38 39 39 39 39 38 37 36 34 33 32 31 30 30 31 30 29 28 28 28 27 27
4 6 8 7 5 9 11 9 6 6 8 9 7 7 6 5 4 6 5 3 5 5 3 6 6 4 5 6 11 13 12 12 12 13 15 17 19 20 20 19 17 16 16 15 15 14 15 16 17 22 27 30 32 34 36 37 37 37 37 38 39 39 40 39 38 39 39 39 40 39 37 36 34 34 33 33 32 32 31 31 31 31 30 30 30 30
4 5 8 8 4 5 11 11 8 6 7 9 8 7 6 6 5 5 4 4 4 4 5 4 5 5 4 4 9 13 14 14 12 14 15 15 16 17 16 16 16 16 16 14 14 15 16 17 19 23 27 29 31 34 36 37 38 37 37 39 40 39 39 40 39 39 39 40 40 39 38 36 35 35 35 34 34 33 32 32 32 32 32 32 32 31
3 4 3 3 7 4 8 10 8 8 6 7 7 7 8 5 4 3 4 4 3 3 6 4 4 4 4 5 6 5 11 14 15 15 14 15 14 11 10 13 15 15 15 14 14 16 17 17 20 23 26 29 31 33 36 37 38 39 38 39 40 40 40 40 40 39 40 40 39 39 38 37 36 35 35 34 34 34 33 33 33 32 32 32 32 31
2 5 7 11 13 7 5 6 9 11 6 4 7 9 6 5 5 3 4 1 3 5 6 3 4 4 2 7 5 3 7 10 13 14 14 15 13 10 11 13 15 15 15 15 15 16 17 16 20 25 28 30 32 34 37 39 40 41 40 39 40 39 39 40 40 40 40 39 38 39 39 38 37 36 35 35 35 35 34 33 33 32 32 32 32 31
2 6 9 8 9 8 8 8 8 12 8 4 7 8 5 6 4 5 4 2 3 7 5 2 6 5 4 6 4 5 7 8 11 12 13 14 10 11 13 14 16 17 17 17 17 17 16 16 19 25 30 33 35 37 38 39 40 40 39 39 39 39 39 40 41 40 40 39 38 38 39 38 38 38 37 37 36 34 33 33 33 32 32 32 32 32
1 4 7 3 4 9 10 7 6 9 10 7 6 8 7 5 7 6 5 6 6 5 4 3 4 5 6 6 4 8 10 9 10 11 12 13 11 12 13 14 16 17 16 16 16 15 14 15 18 24 29 32 35 36 37 38 38 38 39 39 40 40 41 41 40 40 39 39 38 38 38 39 38 38 37 36 34 33 33 33 33 33 34 33 33 32
0 0 4 3 3 9 7 2 4 7 11 9 5 7 7 5 6 6 4 3 4 4 4 3 2 4 6 6 8 11 12 11 11 10 11 13 12 12 13 13 14 15 15 15 15 14 15 16 20 27 30 32 34 35 35 36 36 37 38 38 38 39 39 39 39 39 38 38 38 36 36 37 37 38 37 35 34 33 34 34 34 34 34 33 33 32
1 1 3 6 7 6 4 3 4 4 5 6 5 6 7 4 2 4 3 2 4 4 3 3 3 5 5 5 9 12 12 12 13 12 12 12 12 13 13 13 13 14 15 16 16 15 17 17 21 28 31 30 31 31 32 34 36 37 37 37 38 38 38 38 39 38 38 37 37 36 35 36 37 37 37 35 34 34 35 34 34 34 33 32 32 32
0 1 2 5 6 3 6 6 4 2 2 3 4 5 8 5 3 5 5 3 4 4 4 3 4 6 5 4 8 11 11 12 13 13 12 12 13 14 13 14 14 15 16 17 17 17 17 17 19 24 28 27 27 29 33 35 36 36 37 37 37 37 38 39 39 38 38 37 37 37 37 37 37 37 37 36 35 35 35 34 34 34 32 32 33 33
2 1 1 5 5 7 16 18 13 9 6 5 5 4 5 4 5 6 7 4 3 3 3 2 4 7 6 6 8 9 10 11 12 13 12 11 12 13 14 15 15 15 16 17 17 17 16 17 18 21 25 28 30 32 34 35 35 36 37 37 37 37 38 39 39 39 39 38 38 39 38 37 37 37 37 37 36 36 36 35 34 33 32 33 33 33
3 1 1 4 5 7 14 14 8 5 3 2 3 3 3 3 4 6 5 4 4 4 3 4 8 8 5 5 7 8 8 7 7 10 11 11 10 10 13 14 13 14 16 16 16 15 15 14 14 16 19 24 28 29 31 33 34 35 36 36 37 38 39 39 39 39 38 38 38 38 38 37 36 37 37 38 37 37 37 36 34 33 33 33 33 33
3 1 1 2 2 4 7 5 1 3 4 2 4 5 4 6 6 3 2 3 3 7 8 6 8 8 3 1 2 4 5 4 4 6 8 9 8 9 10 11 12 14 14 15 15 15 14 13 13 13 15 21 26 28 30 32 33 34 36 37 38 38 39 39 38 38 38 38 38 37 36 37 36 36 37 38 38 38 38 36 34 33 33 33 33 33
3 2 1 2 3 4 5 3 2 2 5 4 6 8 7 7 7 5 2 3 5 7 8 7 9 8 1 2 1 0 3 5 5 5 5 7 8 7 8 10 11 12 14 15 16 15 14 14 14 15 16 20 26 28 30 32 33 34 35 37 38 38 38 38 37 36 37 37 36 35 36 37 36 37 38 38 38 37 37 36 35 34 33 33 33 32
3 3 3 4 5 5 4 3 3 3 5 7 10 13 12 8 6 4 3 5 6 4 5 7 10 8 6 4 4 4 5 6 6 6 5 7 9 8 8 10 11 12 14 15 14 14 14 14 16 17 17 21 26 29 30 32 33 34 35 36 37 37 36 36 36 36 36 36 36 35 36 37 37 38 38 38 38 37 36 36 36 35 34 34 33 32
2 3 4 6 7 9 8 9 8 6 7 10 11 13 14 12 8 5 6 6 3 5 7 8 5 7 12 9 4 4 7 7 6 8 8 8 10 10 10 11 13 14 14 13 13 14 16 16 17 17 17 20 25 28 29 31 32 34 34 35 35 35 35 36 36 36 36 36 35 36 37 38 38 38 38 37 38 37 37 36 36 36 35 34 33 33
2 3 3 4 7 10 10 11 12 9 9 10 10 12 15 14 11 9 9 8 4 6 9 6 5 9 11 6 4 2 5 7 8 9 8 8 9 11 11 12 14 16 15 14 14 16 17 17 17 17 18 19 23 26 27 28 30 31 32 33 34 35 35 36 36 36 36 35 36 37 37 37 37 37 37 37 37 37 37 36 36 36 35 34 34 34
2 4 4 4 6 10 11 12 12 9 7 8 9 10 11 13 13 11 11 10 10 10 8 6 9 10 4 5 7 6 5 5 6 5 6 8 10 11 13 14 15 16 15 15 16 16 17 18 18 18 17 17 20 25 26 27 29 31 32 33 34 35 36 36 36 36 35 35 36 37 37 36 36 36 36 37 37 37 37 36 35 35 34 35 35 35
3 3 2 1 3 8 9 8 7 7 7 7 6 6 9 11 8 6 7 6 6 8 9 8 10 8 4 6 6 6 5 4 5 8 8 8 9 11 13 14 14 15 15 15 17 16 17 17 16 16 17 17 21 26 28 28 30 32 31 32 34 35 35 36 36 35 36 36 37 36 36 35 35 35 36 36 36 36 36 35 35 34 35 35 35 35
3 3 3 2 1 5 5 4 4 6 6 6 2 8 12 11 8 3 1 4 3 4 5 6 6 5 6 8 6 6 8 10 11 12 11 10 10 9 11 11 13 15 15 16 16 15 15 15 16 17 17 18 22 26 28 28 29 29 31 33 34 34 34 35 35 35 35 36 36 35 35 35 34 34 35 35 36 36 36 35 34 35 35 35 35 35
4 3 2 1 1 4 5 4 7 5 4 4 1 6 8 8 8 6 6 10 8 3 2 2 4 5 7 7 7 9 11 12 11 10 10 11 13 10 8 9 10 12 15 16 16 15 16 15 16 18 19 20 25 30 31 32 32 32 33 34 33 33 33 33 33 33 34 34 34 34 34 34 34 34 35 36 36 36 35 35 35 35 35 35 36 35
5 5 3 0 1 4 6 6 5 4 4 4 3 5 7 6 8 8 8 12 13 8 5 4 5 8 9 7 6 7 8 10 9 9 10 11 12 11 8 7 8 8 9 11 13 14 15 14 14 16 20 25 28 30 32 32 30 29 29 30 31 31 32 32 31 31 32 33 33 34 34 34 35 35 36 36 36 36 36 36 36 36 36 35 35 34
6 6 3 1 2 4 6 4 3 6 4 5 7 8 9 4 6 8 7 14 18 16 13 12 11 12 12 8 7 5 3 5 7 10 14 14 12 12 9 5 6 7 7 7 10 12 12 13 12 13 17 23 25 26 27 27 26 25 27 29 31 31 31 31 31 31 33 33 34 34 34 35 35 36 36 36 36 35 36 36 36 36 36 35 35 35
6 5 3 2 3 2 3 2 4 4 2 4 5 9 10 5 7 10 7 14 19 17 15 15 13 14 13 10 8 5 4 2 5 10 15 17 15 13 11 7 2 6 8 8 9 10 11 12 14 16 19 22 25 26 26 26 26 27 28 30 30 30 31 31 31 32 33 33 33 34 35 35 35 35 35 35 35 34 34 35 35 36 35 35 34 35
8 6 2 2 2 2 2 3 2 2 2 3 3 5 7 5 8 8 3 8 14 15 14 14 14 15 14 12 11 7 4 2 6 11 15 18 18 15 12 10 6 2 6 7 7 8 10 14 17 19 22 24 26 27 27 27 28 28 27 28 28 29 30 30 31 32 32 33 33 35 36 36 36 36 35 34 33 33 34 35 36 36 36 34 34 34
9 6 2 1 1 1 2 3 1 2 3 1 2 6 8 8 9 8 3 2 10 15 16 14 14 16 15 14 15 11 4 4 8 8 12 17 17 16 13 12 10 7 5 7 10 12 15 18 21 22 25 25 24 25 28 28 28 28 26 26 27 28 28 29 30 31 31 33 34 35 36 37 37 37 35 34 34 35 35 36 36 37 36 35 35 36
11 7 3 2 2 2 2 2 1 2 3 1 8 12 13 11 8 5 4 2 10 15 16 15 15 16 15 15 16 11 5 6 5 6 11 14 14 13 12 12 12 11 9 8 9 12 17 22 24 24 25 25 24 26 29 30 29 27 25 25 27 27 26 28 30 31 32 34 35 36 37 37 37 37 35 35 36 37 37 37 37 37 35 35 36 36
8 6 4 4 5 4 4 2 2 1 1 6 12 14 15 12 5 3 3 3 9 12 13 14 15 16 15 14 13 10 8 6 4 7 10 12 11 12 12 12 12 12 11 12 12 12 16 21 22 21 21 23 26 29 32 32 30 27 25 25 26 25 26 29 32 33 34 35 34 35 35 36 36 36 36 36 37 38 38 37 36 35 33 34 35 34
4 4 5 6 5 5 5 2 1 0 2 9 13 14 15 10 2 3 2 2 6 10 11 12 13 14 14 13 10 8 7 6 6 9 10 10 13 14 13 13 15 15 15 15 16 15 16 17 17 17 16 19 25 30 32 32 28 24 24 25 24 25 28 32 33 33 34 34 32 33 34 35 36 37 37 38 38 37 36 36 35 33 33 33 34 32
1 1 2 3 2 3 2 1 0 2 3 12 13 12 11 5 3 3 4 3 7 11 11 11 12 13 14 13 9 7 8 9 9 9 11 13 14 13 14 14 16 17 17 18 19 18 16 16 17 17 15 15 21 27 30 29 25 21 22 22 21 24 27 29 31 32 33 33 32 32 33 34 35 36 37 38 37 35 34 35 34 34 33 32 31 30
3 1 1 1 2 2 0 1 1 1 5 14 13 8 8 7 3 3 5 6 9 12 12 11 11 11 13 13 10 9 10 11 12 13 14 14 14 13 14 16 15 15 14 15 17 17 15 14 15 17 17 16 19 23 27 27 22 20 20 18 17 20 22 23 26 28 29 30 30 31 32 34 35 36 36 36 36 35 35 35 33 32 32 31 30 29
6 3 1 2 3 2 2 3 3 2 5 11 9 5 6 6 4 5 7 7 8 9 10 10 11 12 13 13 12 11 11 13 15 16 14 14 15 13 13 15 16 15 13 14 16 18 17 14 14 17 19 19 21 22 25 27 25 22 20 18 17 18 18 18 19 21 24 28 30 32 32 34 35 37 37 37 36 35 34 33 31 31 31 31 30 28
7 6 4 2 2 3 2 3 3 2 4 7 5 4 5 6 7 8 8 6 7 8 8 9 12 14 14 13 13 12 11 13 14 14 13 12 12 12 13 14 15 15 15 15 17 18 17 15 15 17 18 20 22 23 24 26 26 22 18 16 17 17 16 15 15 14 15 19 25 30 33 33 34 35 36 36 35 34 33 32 30 30 30 30 29 28
6 8 5 3 4 4 0 4 4 5 7 7 4 2 5 6 7 9 9 7 7 8 8 9 11 13 13 13 13 12 11 12 13 13 13 12 11 12 12 13 14 16 17 16 16 16 16 16 16 16 17 18 20 22 23 24 24 22 18 16 15 15 13 12 11 10 9 9 11 17 24 29 31 32 32 32 31 32 33 32 31 30 29 28 28 27
6 8 6 5 7 5 1 5 8 11 11 8 3 2 5 6 7 8 8 7 7 8 9 9 11 13 12 11 11 12 12 12 13 14 14 12 11 11 11 11 13 14 15 16 16 16 15 15 14 14 15 15 16 19 22 22 22 20 18 16 14 12 10 10 9 7 7 5 4 7 13 20 25 27 27 27 26 28 29 30 30 28 27 26 26 25
6 7 7 7 8 5 1 6 12 12 8 2 3 3 5 7 10 11 10 9 8 8 9 9 10 10 11 11 10 11 13 12 11 13 14 12 10 10 9 9 11 13 16 18 18 16 15 13 12 12 12 12 13 16 19 19 18 17 16 15 13 11 9 8 7 6 5 4 3 5 9 13 17 21 22 21 22 23 23 24 25 26 26 27 27 25
6 6 7 8 7 4 2 8 14 11 6 7 7 7 9 9 11 13 14 13 12 10 9 9 9 9 10 11 10 9 12 13 10 11 13 13 10 8 8 9 11 13 16 18 18 15 13 12 11 11 11 10 13 17 17 17 16 15 15 14 12 10 10 9 7 6 4 2 2 4 7 10 13 16 18 18 18 18 17 17 20 22 23 25 26 26
6 7 8 7 6 4 5 10 12 8 5 6 9 11 12 11 12 13 15 15 13 11 9 9 10 10 9 10 9 7 9 12 10 9 10 13 12 8 7 9 12 14 16 18 18 17 14 11 10 11 10 10 14 17 18 17 16 15 15 14 12 11 10 9 9 8 6 4 4 5 9 12 14 17 18 19 18 17 14 12 13 16 18 20 21 22
7 8 10 8 6 7 9 11 10 7 8 10 11 11 12 11 11 13 15 15 14 12 9 8 9 10 9 10 10 7 7 9 11 8 6 11 16 15 10 9 11 13 15 16 16 16 15 13 10 10 10 10 14 17 17 17 17 16 15 14 12 11 10 9 10 10 8 7 6 8 12 15 17 18 20 20 20 19 17 14 11 10 12 13 14 16
Wind_Direction
161 172 197 209 214 206 207 202 197 246 242 155 160 189 188 203 246 244 240 234 157 166 228 211 216 225 206 188 190 182 182 184 178 178 183 186 186 188 191 194 196 200 200 190 189 192 192 193 195 195 195 195 197 198 198 198 199 200 200 200 201 203 205 204 205 207 209 211 214 217 220 222 223 222 223 224 222 224 230 236 240 239 234 230 229 230
168 197 217 215 210 201 199 188 183 232 259 254 190 214 224 218 241 255 245 233 164 169 250 227 220 234 218 190 189 181 181 187 184 185 187 188 190 192 193 197 198 198 190 183 188 192 192 193 194 195 195 195 196 197 198 198 200 201 201 201 202 202 202 204 206 207 208 211 213 214 217 221 223 223 223 223 223 224 229 236 240 239 235 232 233 235
198 219 223 209 179 178 187 177 176 205 234 250 246 225 252 241 259 276 259 241 165 183 263 230 212 238 231 197 187 182 186 195 193 189 188 187 189 193 196 198 196 192 187 187 190 191 192 193 193 194 196 197 197 197 198 200 200 200 201 202 203 201 202 205 206 207 209 212 214 215 218 220 222 225 225 226 226 227 231 236 238 239 237 235 237 238
198 232 221 187 152 179 191 179 176 190 214 229 231 224 238 231 208 256 266 312 194 210 238 212 211 247 238 201 195 194 193 197 198 196 192 188 190 194 196 194 189 189 190 190 190 190 191 192 193 195 197 197 197 198 199 200 200 199 201 202 202 202 203 204 206 208 210 211 214 216 219 221 223 226 228 229 232 233 235 236 237 238 237 237 238 238
222 261 199 165 171 191 196 194 183 186 211 219 222 223 222 215 209 239 292 342 330 282 238 174 257 283 228 192 208 207 201 202 201 199 199 198 198 199 197 194 191 190 191 190 190 190 190 192 194 195 196 196 196 199 199 199 199 199 201 202 202 203 204 205 206 207 208 207 209 212 215 219 222 225 227 228 230 234 234 234 234 235 235 236 237 237
241 260 153 162 186 196 203 207 195 189 207 227 225 219 208 200 212 251 319 352 359 313 280 166 231 282 258 208 209 200 199 207 203 197 203 205 202 199 195 197 198 196 193 191 191 190 192 193 193 194 195 196 198 200 201 199 199 200 201 202 202 203 204 205 206 205 204 204 204 205 205 207 210 213 219 222 225 228 229 230 231 232 232 232 235 237
227 224 164 175 188 188 203 216 201 186 199 237 218 199 193 180 180 189 247 288 230 256 271 159 192 263 302 252 217 193 194 204 200 200 207 206 200 197 197 198 198 198 196 194 193 191 191 192 191 194 196 197 200 201 200 199 199 200 201 201 201 202 204 205 205 204 203 202 203 204 205 206 207 209 215 221 224 226 228 229 230 230 231 232 235 238
186 204 188 189 191 184 200 213 197 181 197 232 172 152 173 179 182 185 185 219 233 267 273 192 159 236 285 264 229 193 196 206 201 204 209 205 201 200 202 201 197 198 196 193 193 191 191 191 192 196 197 199 200 199 198 198 199 200 200 201 201 201 203 204 204 203 202 202 203 205 207 209 211 213 217 220 223 226 228 228 228 230 232 233 236 240
170 199 193 186 196 196 203 205 189 182 204 225 149 147 169 185 195 191 190 228 257 311 273 230 153 227 265 268 256 194 199 213 207 207 209 202 202 204 204 203 200 200 198 195 194 192 192 193 194 197 198 200 200 198 198 198 199 200 200 200 200 201 202 203 203 202 203 204 204 205 206 208 212 216 219 221 222 223 224 226 227 229 232 234 237 239
188 196 181 183 204 206 205 203 182 187 211 210 153 153 159 175 190 186 189 212 232 254 254 238 169 214 265 260 242 207 204 216 213 211 212 204 204 205 203 203 202 200 199 200 198 195 195 195 195 196 197 198 199 200 200 199 199 199 199 200 200 201 201 202 202 203 204 205 205 205 206 208 212 215 217 219 220 220 221 224 226 229 231 234 237 238
256 202 171 190 209 189 184 198 182 190 201 165 138 146 141 165 170 176 177 152 211 246 245 231 183 192 258 237 202 215 205 198 207 216 217 210 209 209 206 204 202 198 198 200 201 198 197 196 195 194 195 196 198 200 199 198 198 198 198 199 200 201 201 201 202 203 204 204 205 206 207 209 211 212 213 213 216 217 219 223 225 228 230 233 236 238
255 232 194 193 193 170 159 191 191 194 195 172 148 147 149 269 124 159 153 141 213 242 237 217 184 189 239 238 200 217 211 191 202 215 213 209 210 209 207 205 202 199 199 199 199 197 192 191 193 194 196 196 195 197 197 197 198 197 198 199 199 201 200 200 201 202 203 204 205 207 208 210 211 211 211 212 213 215 217 221 224 225 227 231 234 236
232 231 233 228 192 176 167 184 196 197 196 191 170 152 174 218 171 192 206 191 222 244 223 185 171 199 240 247 219 215 218 208 207 213 212 208 207 207 206 204 201 199 199 198 196 193 188 189 193 194 195 194 194 195 196 196 196 197 198 198 199 200 200 200 201 201 203 204 206 208 209 210 211 211 212 213 214 216 218 220 221 222 224 227 230 232
238 229 218 227 220 183 180 188 191 189 194 196 185 172 185 185 184 205 213 228 240 252 224 160 160 219 252 249 221 209 215 220 215 217 218 212 209 207 204 200 199 199 199 198 195 191 191 193 194 194 193 194 194 195 195 196 196 196 197 198 199 201 200 200 201 201 202 204 206 208 209 210 210 210 213 214 216 218 219 221 222 224 224 225 229 231
234 231 208 211 227 192 194 199 186 166 181 198 189 185 199 189 185 192 189 215 232 252 244 170 168 206 191 222 220 200 205 215 219 225 224 221 216 208 203 197 197 200 199 198 195 193 195 195 193 192 193 195 195 194 195 195 196 196 197 198 199 200 200 200 201 201 202 204 207 208 209 210 210 211 213 215 218 219 220 222 223 225 226 227 231 233
250 260 267 295 323 292 215 204 172 153 184 199 178 193 214 187 152 165 196 200 172 238 247 203 205 221 202 258 266 201 199 204 215 225 224 227 222 201 192 193 195 201 199 197 196 197 198 195 192 192 193 195 195 195 195 195 195 196 197 198 199 200 200 200 201 202 203 205 206 207 209 209 210 211 212 215 218 220 221 223 224 226 227 229 232 234
298 281 314 331 324 302 250 231 188 172 184 181 175 201 203 142 138 201 238 208 126 220 239 199 228 257 268 274 274 184 192 202 214 223 223 226 216 184 184 192 194 199 198 197 198 198 197 192 191 193 194 194 194 195 197 197 196 196 196 197 198 200 200 200 202 203 204 205 206 207 209 209 210 210 212 215 217 219 221 223 225 227 228 230 233 236
335 289 299 311 295 298 339 320 235 188 161 147 187 194 142 117 174 203 229 235 191 229 257 217 215 211 199 249 244 167 191 214 218 221 225 227 207 183 192 194 192 196 196 197 199 198 195 192 192 194 195 196 195 196 197 197 197 197 197 197 197 198 199 201 202 203 205 205 206 208 208 209 210 211 213 215 217 218 219 222 224 226 229 231 233 236
9 300 295 272 254 307 340 331 260 202 181 184 185 165 142 162 199 189 199 216 210 235 279 281 226 206 203 226 210 185 198 214 219 220 226 224 205 194 200 195 192 194 194 197 200 198 193 193 194 195 197 197 196 196 196 196 196 196 198 198 198 199 200 201 202 203 205 206 206 208 209 209 210 212 213 215 215 216 218 221 223 225 229 232 234 236
4 277 286 298 342 329 321 253 218 211 202 198 164 155 170 193 195 188 188 187 192 225 257 267 254 234 229 208 183 193 201 201 207 215 222 221 211 202 200 195 192 191 193 197 199 196 193 194 196 196 197 196 195 195 194 193 194 196 197 198 198 200 200 201 202 203 204 205 207 208 209 209 210 211 213 214 214 215 218 221 223 225 228 230 233 235
323 115 263 306 343 339 281 218 203 216 209 201 186 175 190 204 181 194 207 174 180 196 221 248 259 256 251 203 182 196 202 196 196 203 214 218 212 207 202 195 191 190 194 198 196 194 194 195 196 196 196 195 192 192 191 192 194 195 196 197 198 198 198 199 201 202 203 204 206 207 208 209 210 211 213 213 214 216 219 221 223 225 227 229 232 234
323 125 248 296 327 308 264 278 301 332 339 242 229 196 195 194 139 181 225 224 193 197 192 212 260 261 252 208 189 197 201 200 197 197 208 216 209 207 206 198 193 193 196 198 197 195 195 195 195 193 190 187 187 188 190 192 193 193 195 196 197 197 197 198 199 200 202 203 205 207 208 209 210 211 212 213 214 217 219 221 223 225 226 227 231 233
261 200 267 271 271 262 265 274 281 278 272 256 247 226 210 190 151 187 225 214 192 220 198 195 278 268 238 202 197 203 201 202 204 198 203 215 211 206 208 202 195 195 199 200 198 196 196 195 192 186 181 182 186 189 190 191 191 193 194 195 196 196 198 198 198 199 201 202 204 206 208 208 209 210 211 212 214 217 219 221 223 224 225 227 229 231
301 202 279 288 282 274 269 268 272 276 258 231 270 291 282 260 220 206 201 173 184 210 189 223 264 263 246 207 203 214 209 196 206 207 207 216 214 206 211 209 199 198 201 201 198 198 198 192 183 178 179 182 186 188 189 189 191 192 193 194 195 197 198 198 198 199 199 201 204 205 206 207 208 209 210 212 214 216 219 221 222 223 225 227 228 231
337 265 113 6 340 292 276 257 246 9 15 356 307 306 315 321 311 272 167 137 207 207 177 190 246 251 265 284 219 237 244 223 221 223 219 226 222 206 210 213 207 204 202 199 197 196 191 180 175 178 180 183 184 186 187 188 190 191 192 193 195 197 198 198 197 197 198 201 203 204 205 206 207 208 209 211 213 216 219 220 221 222 224 226 227 229
295 265 175 113 154 204 224 200 170 336 334 321 307 305 317 342 337 302 217 179 226 217 175 184 235 239 244 45 93 251 267 252 258 263 247 244 239 219 210 213 213 209 205 201 196 190 184 178 178 181 180 182 184 185 186 187 189 190 191 193 195 196 197 196 197 197 198 200 201 202 204 205 207 208 210 211 213 216 218 219 220 221 223 224 226 227
271 251 216 197 205 221 244 262 236 266 296 296 304 307 303 307 313 305 242 209 209 192 186 216 237 247 251 225 192 205 230 232 253 267 257 248 246 233 216 213 214 211 207 202 192 183 180 180 181 181 180 182 184 184 185 186 187 188 190 192 195 195 195 195 195 196 198 200 201 203 204 206 207 209 210 212 214 215 217 218 220 221 222 224 225 226
278 268 236 215 232 250 266 278 273 272 278 278 285 292 292 295 298 278 250 240 176 163 223 237 235 254 257 245 206 214 227 227 242 247 243 241 240 236 225 214 213 212 207 199 188 181 181 182 182 182 180 181 182 183 185 186 187 188 189 191 192 192 193 193 194 195 197 199 201 203 205 207 208 210 211 212 214 215 217 218 219 221 222 223 224 226
273 279 250 222 251 261 260 265 268 264 260 260 264 271 280 289 285 260 252 252 218 215 237 226 192 231 257 293 355 312 238 241 249 248 255 259 246 239 235 221 212 209 203 192 185 182 183 183 182 181 181 180 179 180 182 184 185 186 187 189 189 191 192 192 192 195 196 198 201 204 206 207 208 210 211 212 214 215 216 217 219 220 221 222 223 226
268 271 247 241 276 275 267 261 254 243 243 253 256 261 276 285 274 253 247 249 248 253 255 224 215 231 267 349 334 306 273 253 256 276 300 287 262 243 234 225 212 203 195 188 185 185 185 185 182 180 178 176 176 178 179 180 183 184 186 186 188 190 191 191 191 193 195 198 203 205 206 207 208 209 210 211 213 215 216 217 218 219 220 222 224 226
270 267 273 298 291 281 272 250 229 225 231 241 260 297 321 320 299 249 237 256 267 266 267 255 240 246 318 340 316 316 341 4 3 352 340 312 280 251 230 218 204 193 189 188 185 185 185 183 178 174 174 176 178 178 179 181 182 183 184 185 187 189 189 189 190 193 195 199 203 205 205 206 207 208 209 211 213 214 216 217 218 219 220 222 223 225
271 291 332 15 324 288 261 220 255 263 226 214 296 351 346 345 1 27 39 19 344 275 294 301 268 271 316 323 327 350 13 27 20 359 347 338 319 278 233 211 195 186 185 187 186 185 182 177 172 173 176 178 179 179 181 180 179 181 183 185 186 187 187 188 190 193 196 200 202 203 204 205 206 207 209 211 212 214 216 217 217 219 221 222 223 225
252 271 310 24 281 277 256 277 304 287 195 199 313 7 349 342 7 28 36 22 1 331 22 328 268 290 309 317 351 17 25 28 20 3 350 342 334 309 252 212 195 191 187 185 183 180 177 174 175 177 177 177 179 182 182 179 179 183 185 184 183 183 184 187 190 192 196 199 201 202 203 204 205 207 209 211 213 214 215 216 217 219 221 222 224 225
243 243 262 326 229 264 283 308 296 216 177 186 142 58 8 346 6 19 36 25 12 15 22 331 307 324 319 314 345 8 26 29 20 7 359 351 344 327 286 225 196 193 191 187 183 179 177 176 177 177 177 179 181 182 180 180 181 183 181 179 179 181 184 186 188 191 195 198 200 202 203 204 205 207 210 211 212 214 215 215 217 220 221 223 224 225
238 240 247 228 215 272 304 312 203 178 169 155 127 48 12 1 356 355 32 35 20 14 8 351 335 330 325 318 315 306 329 18 24 18 7 359 353 341 318 268 193 172 174 184 181 175 173 171 169 171 174 176 176 174 175 177 177 174 174 176 179 181 183 185 187 191 195 198 200 201 202 203 205 208 210 211 212 213 214 216 218 220 221 223 224 225
226 239 249 237 231 278 310 283 184 162 82 88 88 24 8 15 352 342 24 36 19 10 6 353 337 331 327 322 320 300 261 283 26 24 8 357 352 347 340 326 255 170 162 170 175 173 170 166 165 165 166 167 167 168 171 173 172 170 173 177 179 180 182 184 188 192 196 199 200 201 202 204 205 208 210 211 211 212 214 216 218 220 221 222 224 226
216 228 233 234 233 231 277 291 250 146 45 23 46 10 350 334 323 321 357 38 18 9 0 346 337 338 336 333 337 322 264 294 30 19 360 353 349 344 348 352 351 104 137 140 141 140 143 148 152 154 155 159 164 167 169 170 170 170 172 175 178 179 181 184 190 194 196 199 200 202 203 205 206 208 210 210 210 212 214 216 218 220 220 221 222 225
212 218 200 199 252 295 291 292 305 150 165 206 316 317 310 298 294 287 257 42 17 6 355 344 340 342 345 348 342 326 303 34 30 4 346 347 346 345 353 6 14 31 77 115 127 129 131 137 144 150 154 157 162 166 167 167 168 168 170 174 177 179 181 186 193 196 197 200 202 203 204 205 207 209 209 210 210 213 215 217 219 221 220 219 221 224
208 213 216 254 276 313 295 258 255 166 148 6 323 309 306 308 299 260 201 55 12 359 351 348 348 348 352 353 344 340 23 54 27 347 338 337 341 350 359 10 20 28 38 61 98 126 137 142 145 151 155 157 160 164 165 166 166 167 170 174 177 179 183 189 195 198 200 203 204 205 206 207 208 209 209 210 212 214 216 218 219 221 220 219 221 225
205 206 218 237 243 252 246 252 307 161 110 341 324 313 310 307 287 188 157 34 2 351 347 350 353 351 352 352 352 5 35 38 356 320 319 327 347 2 8 13 22 29 36 43 59 95 125 135 140 147 153 158 162 164 165 166 167 169 172 174 176 180 186 193 198 201 204 206 207 206 207 208 209 210 210 211 214 216 217 218 219 220 219 220 222 224
192 198 214 220 229 242 229 225 330 107 22 338 327 320 313 296 214 112 69 18 348 342 345 353 355 351 351 358 9 16 4 339 308 299 316 349 9 8 8 16 24 31 38 43 51 68 92 107 115 123 136 152 160 164 166 168 168 170 171 172 176 184 191 196 201 204 206 208 208 207 208 209 210 211 213 214 216 217 218 219 219 219 218 219 220 222
158 199 224 220 239 262 221 190 266 149 19 348 335 327 330 336 114 62 28 33 360 346 345 352 355 353 352 356 7 3 333 319 320 334 358 13 13 5 6 15 21 25 32 40 46 56 71 83 89 93 103 130 152 162 166 165 162 163 167 170 177 187 192 197 201 204 207 209 209 210 209 210 212 213 214 216 216 216 217 219 219 219 219 218 219 220
6 343 39 6 334 324 355 58 66 119 6 352 347 348 9 29 46 354 2 19 7 353 345 345 353 356 351 348 351 347 334 336 353 4 9 11 9 6 9 14 16 17 21 28 32 41 57 71 75 76 83 104 130 147 155 152 145 144 148 152 162 174 184 194 200 204 208 210 211 212 211 212 214 215 215 217 216 215 217 218 218 218 218 217 217 218
14 3 16 20 9 2 33 52 55 46 351 354 1 32 48 42 25 3 7 7 0 354 347 341 344 349 348 343 340 338 340 353 4 7 4 3 3 2 6 14 16 15 16 18 22 32 47 58 65 70 76 89 106 123 135 135 129 125 128 132 139 148 157 171 184 194 203 209 212 214 214 214 216 216 217 217 215 215 216 217 216 216 216 216 215 216
21 352 326 337 8 354 17 78 82 51 352 350 359 43 57 42 21 12 12 6 354 350 345 338 336 339 344 343 338 339 347 354 359 3 3 358 354 356 6 13 13 11 13 16 20 29 42 53 62 67 70 79 92 105 117 123 120 116 116 124 130 132 135 143 151 164 182 198 209 214 215 216 216 216 218 218 215 214 215 214 213 213 213 213 213 213
20 359 340 327 333 319 187 108 68 8 343 327 317 42 52 34 14 5 1 359 350 341 337 335 330 330 336 341 341 342 345 348 352 360 5 0 353 355 2 5 7 10 12 13 16 27 42 55 61 63 64 69 81 94 102 109 111 109 110 117 121 123 128 133 136 142 150 166 194 209 214 216 217 217 218 218 215 214 214 214 212 211 212 211 210 212
9 9 3 348 340 327 107 71 20 340 318 298 258 94 44 16 1 356 348 340 335 331 328 326 324 324 328 336 341 339 339 346 354 358 0 1 355 351 352 356 1 5 7 8 13 24 42 53 55 56 58 60 71 86 94 98 100 101 104 107 109 113 121 125 129 139 145 152 173 198 208 215 218 219 219 218 216 214 215 214 212 211 210 208 207 209
344 355 356 347 344 329 314 18 360 336 324 1 91 79 27 359 345 338 331 323 318 317 314 313 317 320 321 324 333 336 336 342 354 357 354 353 350 344 343 350 357 1 4 7 12 23 39 47 51 57 60 60 70 83 90 94 97 99 100 100 102 110 117 120 127 136 144 162 183 189 198 207 214 215 215 214 213 212 212 212 211 210 210 210 209 208
324 340 344 332 329 318 316 355 355 351 18 50 33 354 341 337 329 323 318 313 308 305 304 305 308 310 310 313 321 334 334 334 349 2 351 339 339 342 335 336 350 1 5 5 7 18 35 44 52 61 63 66 78 84 85 87 91 95 98 98 101 108 111 113 119 125 131 146 156 168 181 189 196 200 198 194 194 195 198 203 206 207 210 214 214 212
346 351 345 331 335 348 343 344 346 338 325 335 333 322 314 311 310 308 304 301 299 298 298 299 299 298 299 302 309 328 333 326 336 2 351 327 323 330 331 336 349 358 3 6 8 14 25 38 53 62 61 67 78 83 83 83 85 88 90 90 91 94 99 107 110 105 103 109 124 148 165 170 176 181 180 177 175 172 170 177 192 199 204 210 213 215
359 347 341 338 330 320 318 323 325 313 298 299 301 297 292 291 293 292 290 289 288 288 289 288 290 292 294 296 303 318 329 319 320 340 349 321 315 318 329 349 356 354 356 4 10 8 8 17 41 56 58 67 77 81 81 81 82 83 82 81 81 82 85 94 99 93 89 99 125 153 163 164 165 168 170 170 169 165 157 147 147 166 186 197 202 207
Height
753 765 767 762 758 755 756 758 761 760 760 764 767 768 768 769 767 759 755 748 743 756 761 756 758 756 754 755 752 751 751 754 759 761 763 765 766 767 768 769 769 769 768 770 775 779 781 785 787 791 793 796 799 801 804 806 808 810 813 815 817 819 822 825 827 829 831 833 835 837 838 839 841 843 844 846 847 849 850 852 853 855 856 857 858 860
754 765 760 749 750 751 754 757 759 761 761 764 768 770 768 768 766 756 753 749 743 754 759 753 758 756 750 752 749 749 754 755 755 758 760 761 762 763 764 765 765 766 768 771 774 776 779 783 785 788 790 792 795 797 800 802 805 808 810 812 814 817 820 822 824 826 828 829 831 833 834 837 839 841 843 844 846 848 849 851 852 854 855 856 857 859
761 759 748 743 748 750 752 754 757 761 762 765 768 772 774 768 764 758 751 747 746 754 757 753 758 756 747 747 747 747 750 749 746 747 751 753 757 760 760 761 763 766 768 768 770 772 775 778 781 785 786 789 791 794 797 799 802 805 807 809 812 815 817 818 821 823 825 827 829 832 834 836 838 840 842 843 845 847 849 850 851 853 854 855 856 858
764 751 740 743 746 748 753 754 756 761 763 765 767 773 775 766 765 765 755 750 748 750 753 752 756 755 747 747 747 743 741 741 741 741 743 745 749 750 750 752 757 762 764 765 767 768 772 775 778 780 782 785 788 791 793 795 798 801 804 806 809 812 814 816 819 821 823 826 829 832 834 836 838 840 842 843 845 846 848 849 850 851 853 854 855 857
752 739 735 743 746 748 753 754 756 762 765 763 762 767 770 764 763 763 757 753 750 748 748 753 762 757 748 751 750 742 740 740 741 742 745 745 744 744 747 750 753 754 757 760 763 764 766 769 771 774 778 782 784 786 788 791 794 797 800 803 806 809 811 814 816 819 822 825 828 831 834 836 838 840 841 842 844 845 846 847 848 850 851 853 854 856
745 735 734 742 745 747 752 754 754 759 766 766 758 756 760 760 760 760 758 758 763 765 752 753 774 768 748 750 749 742 745 745 743 744 746 744 743 746 750 751 751 751 752 754 756 759 761 764 768 772 775 778 779 781 783 787 790 794 797 800 803 806 809 811 814 817 821 823 826 828 831 833 835 837 838 839 840 842 843 844 846 849 850 852 854 855
739 734 735 740 743 746 752 753 750 752 765 768 752 747 754 756 759 760 759 764 774 774 755 751 773 774 755 750 745 741 745 744 742 743 742 741 742 744 746 746 747 749 750 751 753 755 758 762 766 768 770 772 773 776 780 784 788 791 794 797 800 803 806 809 812 815 818 821 823 825 827 829 831 833 834 835 837 839 841 843 845 847 849 851 853 854
730 734 737 739 742 747 751 751 745 745 761 761 743 744 753 754 759 760 761 767 769 765 758 752 760 772 765 750 740 739 743 743 742 741 738 737 740 740 740 740 741 743 744 747 750 751 754 756 759 761 764 766 769 774 779 782 784 787 790 794 797 800 803 806 810 813 815 818 820 823 825 827 829 830 832 834 836 838 840 842 844 846 848 850 852 853
724 733 736 737 744 746 742 740 738 741 752 749 737 741 748 751 756 756 761 767 764 767 773 761 756 772 770 747 736 739 744 745 742 738 735 734 735 735 736 736 736 738 739 741 743 745 747 749 752 756 759 764 769 773 776 778 781 784 788 792 795 798 801 803 807 810 812 815 817 820 822 825 827 829 831 834 835 838 839 841 843 844 846 848 850 852
722 724 727 732 740 740 734 732 732 738 744 740 735 739 742 748 751 755 762 766 768 777 779 765 758 773 772 748 738 742 743 742 738 733 731 729 729 729 729 731 732 734 736 737 738 740 742 745 749 754 759 764 767 770 773 776 780 783 786 790 792 795 798 801 804 807 809 812 815 817 820 822 825 828 830 833 834 836 838 839 841 843 845 847 848 850
720 716 719 723 727 728 728 729 729 733 736 734 737 743 746 750 751 756 760 763 777 782 771 760 755 767 772 750 736 736 732 730 732 730 728 725 725 726 725 726 727 730 732 734 735 736 739 744 749 754 758 761 764 767 772 775 777 780 783 786 789 792 795 798 801 804 806 809 812 814 817 820 822 825 828 830 832 834 836 837 839 841 843 844 846 848
723 721 719 715 714 719 725 729 728 727 729 734 740 746 756 762 760 765 767 770 786 781 761 753 751 763 770 747 730 727 718 718 723 723 723 723 723 722 721 722 722 725 727 729 732 735 738 744 747 750 753 757 761 765 768 771 774 777 780 783 786 789 792 795 798 801 803 806 809 811 814 817 819 823 825 827 829 831 833 834 836 839 841 842 844 846
727 724 718 713 710 712 724 733 734 731 731 736 742 749 767 778 778 784 784 778 781 771 752 748 752 760 755 731 723 724 715 711 712 710 712 714 714 714 714 716 717 719 722 725 728 732 735 739 741 743 748 752 756 760 763 767 770 773 776 779 783 785 789 792 795 798 801 803 806 809 811 814 817 820 822 824 827 828 830 832 834 836 838 840 841 843
733 724 717 718 715 708 716 729 738 739 736 739 744 752 767 780 788 794 790 780 776 764 747 743 754 759 744 720 712 714 712 707 703 702 702 702 704 706 706 709 713 715 718 720 723 727 730 732 734 738 742 747 751 755 759 763 766 769 772 776 779 782 785 789 792 795 798 800 803 806 809 812 815 817 819 822 824 826 828 830 832 833 835 837 839 840
752 741 723 719 719 711 710 718 725 730 734 736 734 741 755 762 773 784 784 780 775 763 749 748 755 752 737 716 699 698 702 700 699 697 694 695 695 697 701 706 711 713 714 716 719 722 723 724 728 733 738 742 746 750 754 758 761 765 768 771 774 778 782 785 789 792 794 797 800 803 806 809 812 814 817 819 821 823 825 827 829 831 833 835 836 838
766 752 727 721 723 716 712 709 709 721 734 731 726 738 748 743 747 761 766 762 761 760 752 748 746 733 718 705 692 693 697 694 695 693 692 694 691 695 702 706 708 710 711 713 716 718 719 721 725 730 734 738 742 747 750 753 756 759 763 766 770 774 778 782 786 788 791 794 797 800 803 806 809 812 814 816 818 821 823 825 827 829 831 833 835 837
773 757 735 731 727 715 714 710 704 714 727 728 731 738 733 723 731 752 760 752 754 763 749 735 734 725 715 706 691 692 698 695 695 693 691 691 690 695 701 700 703 705 706 709 711 712 714 717 721 724 728 733 736 741 744 747 751 754 758 763 767 771 775 779 782 785 788 791 794 797 800 803 806 809 811 813 815 818 820 823 824 827 829 831 833 835
776 765 743 737 731 716 715 714 703 701 709 723 734 727 719 723 729 741 759 759 761 767 748 730 731 727 725 717 697 692 699 697 695 693 690 689 690 695 695 694 696 697 699 703 703 706 710 712 716 719 722 726 729 734 738 743 748 752 756 760 763 768 771 775 778 782 785 788 792 794 797 800 803 805 808 810 813 816 818 820 822 825 827 828 831 832
772 772 749 736 736 726 717 718 714 703 698 708 715 709 716 738 741 740 754 760 763 767 752 736 731 724 720 714 699 696 696 693 693 693 691 690 690 691 690 689 691 692 695 699 700 704 707 709 712 715 718 721 725 730 735 741 746 750 754 757 760 764 767 771 776 779 783 786 789 792 794 797 800 802 805 808 811 814 816 818 820 822 824 825 828 830
769 775 759 737 736 735 725 722 722 714 703 701 706 707 711 723 731 734 739 742 751 761 753 742 736 722 709 699 692 692 688 686 690 691 689 688 685 685 685 686 688 690 692 694 696 700 702 704 706 709 713 717 722 727 732 739 743 746 750 754 758 761 765 769 773 776 780 783 786 789 792 795 798 800 803 805 808 811 812 815 817 819 821 823 826 828
766 773 769 748 739 740 730 720 718 716 714 712 713 717 715 713 716 724 728 725 734 749 750 746 741 718 695 687 683 681 679 679 681 683 684 682 679 679 679 680 683 685 687 688 690 693 696 698 700 703 709 715 721 727 731 735 739 742 747 751 754 758 762 766 769 773 777 780 784 787 789 792 795 797 800 803 806 808 809 812 814 816 819 821 823 825
768 772 773 764 756 751 737 722 718 721 725 725 720 715 713 714 719 731 738 726 721 733 736 739 742 715 685 680 678 673 674 674 672 674 676 675 674 674 673 674 677 679 681 681 682 685 689 691 694 699 706 713 719 724 727 730 734 738 743 746 750 755 758 761 765 769 773 777 781 783 786 789 792 795 798 800 802 804 807 809 811 814 817 818 820 822
765 770 774 771 763 753 737 722 721 725 727 727 722 711 706 709 713 727 740 729 721 727 723 727 737 709 676 673 673 668 669 670 669 670 670 670 669 669 668 668 670 673 674 675 676 679 682 684 689 695 702 708 712 716 721 725 730 734 737 742 747 750 753 757 761 765 769 773 776 779 783 786 789 792 794 797 799 801 803 806 808 811 814 815 818 819
764 768 772 769 755 739 725 717 718 721 723 725 724 717 713 711 705 707 717 718 720 724 722 732 737 703 672 671 671 666 666 667 668 668 666 666 665 666 666 664 666 669 670 671 674 675 678 682 688 694 699 703 708 713 718 722 726 730 734 738 742 746 749 753 757 762 766 769 773 776 780 783 786 789 791 793 795 797 800 803 806 808 810 812 815 816
773 773 772 769 756 739 726 719 720 725 732 738 737 731 725 718 709 704 705 711 719 716 714 731 731 698 676 676 672 669 669 668 668 668 666 665 664 664 664 663 663 665 666 669 671 673 678 683 687 692 695 699 703 708 713 717 722 726 729 733 737 741 746 750 754 758 762 766 770 773 777 780 783 785 787 790 792 794 797 800 802 805 807 809 811 813
779 776 772 771 762 748 739 738 743 749 751 747 741 736 732 728 726 721 713 714 720 712 707 717 712 688 679 678 672 671 672 668 666 666 666 666 664 664 664 662 662 663 664 666 668 671 676 680 683 687 690 694 699 703 708 713 717 721 725 729 733 737 742 747 751 755 759 763 767 770 773 776 779 781 784 786 789 791 794 797 799 801 803 806 808 810
776 772 769 770 765 755 752 755 760 763 761 753 746 740 736 734 734 731 723 715 710 710 710 703 692 685 682 678 674 672 671 669 666 664 664 664 663 662 662 661 660 659 660 661 664 668 673 676 679 682 685 690 694 699 703 708 712 717 721 725 729 734 739 743 748 752 756 759 763 767 770 772 775 778 780 783 785 788 791 793 795 798 800 802 805 807
776 771 766 768 766 761 760 759 757 759 760 757 751 744 737 733 732 732 729 715 701 707 710 695 687 689 680 673 677 678 673 670 667 663 661 660 658 657 657 658 658 657 657 658 662 666 669 672 675 678 682 685 690 696 700 705 709 713 717 722 727 732 736 740 744 748 752 756 759 762 765 768 772 774 777 780 782 785 787 789 792 794 797 799 801 803
779 775 767 766 765 760 758 756 754 756 757 753 750 745 737 732 731 730 726 714 702 701 697 687 686 685 675 673 682 682 678 676 670 665 662 660 658 655 653 654 655 655 655 657 660 662 664 668 671 674 678 681 687 692 697 702 707 710 715 719 724 728 732 736 740 744 748 752 755 758 761 765 768 771 774 777 779 781 783 786 788 791 793 796 797 799
781 777 766 765 766 760 756 754 752 752 752 748 743 739 733 728 724 722 719 713 705 696 687 682 680 677 677 684 685 680 678 677 672 669 668 665 661 655 652 651 650 650 652 654 656 657 659 662 665 669 674 678 683 688 693 698 702 706 711 715 720 724 728 732 737 740 745 748 751 754 758 762 765 768 771 773 775 778 780 783 785 788 790 792 793 796
781 776 764 764 767 759 752 749 746 746 747 743 736 731 729 724 716 713 713 711 706 698 689 683 680 678 682 685 683 678 674 671 670 671 669 666 661 654 648 646 645 646 648 650 651 652 655 658 662 667 672 676 679 683 688 693 697 702 707 712 716 720 724 729 733 737 741 744 747 752 755 759 762 765 768 770 772 775 777 780 782 784 786 788 790 792
781 776 767 768 769 758 747 745 745 742 739 737 735 733 731 726 719 717 717 717 715 708 696 689 688 690 690 685 682 679 674 671 672 671 668 664 660 654 648 643 642 641 643 645 647 649 653 657 661 665 668 672 676 680 685 689 695 700 704 707 712 717 722 726 730 733 737 741 745 749 752 756 759 762 765 767 769 771 774 776 779 781 782 784 786 788
781 779 773 771 769 756 745 746 746 738 733 735 737 736 734 730 726 723 722 722 720 714 708 704 702 701 696 688 685 682 677 676 675 672 669 664 658 653 646 641 640 639 638 641 643 646 650 653 655 658 662 666 671 676 680 685 690 694 698 703 709 714 719 723 727 731 735 738 742 745 749 753 756 758 761 763 766 768 771 773 775 776 778 780 782 784
780 778 775 773 771 758 748 748 744 734 731 733 732 732 733 732 730 730 729 726 721 715 714 712 707 701 695 690 688 684 680 677 675 672 669 664 659 655 647 640 638 638 638 640 641 643 646 648 651 655 658 663 667 672 678 683 688 692 698 704 708 713 717 721 725 729 732 736 739 742 746 749 752 755 757 759 762 765 767 769 770 772 775 777 779 781
780 777 774 774 771 762 752 747 739 732 730 727 723 726 729 728 730 730 727 724 722 719 717 715 709 703 696 690 686 682 678 675 673 670 666 662 660 657 650 642 637 637 639 641 642 643 644 647 651 655 659 663 668 673 679 684 688 694 699 703 706 710 714 718 722 726 729 733 736 739 743 745 748 751 753 756 759 761 763 765 767 769 771 773 775 777
779 777 773 772 769 762 755 745 733 728 727 723 723 728 729 728 731 732 726 724 726 725 723 720 714 705 697 689 683 680 676 672 670 668 665 663 659 657 653 646 639 636 637 639 641 643 643 645 649 653 657 663 668 673 678 682 687 692 696 700 704 708 712 716 719 722 725 729 732 735 739 741 744 747 750 752 755 757 759 762 763 765 768 770 771 773
773 773 773 773 765 758 756 749 736 729 728 729 731 735 737 737 739 739 736 731 728 728 727 724 716 708 700 691 684 678 672 670 672 671 668 665 662 658 653 647 641 637 636 637 640 642 644 646 649 653 658 662 667 671 676 681 685 690 695 699 702 706 710 713 716 719 722 725 728 731 734 737 740 743 746 749 751 754 756 758 759 762 764 766 768 769
768 769 772 772 764 757 756 750 737 729 730 736 740 740 739 738 736 738 739 734 728 729 729 726 721 713 704 697 689 679 672 676 685 684 675 670 666 661 655 649 644 640 638 638 640 642 645 648 651 655 659 662 667 671 675 679 684 688 693 697 700 704 708 710 713 716 719 722 724 727 730 733 736 739 742 745 747 749 751 753 755 757 759 762 763 764
765 765 768 771 770 766 761 750 739 733 735 743 747 742 736 734 732 733 736 736 733 732 730 728 725 718 710 705 699 687 681 689 697 692 681 675 671 664 659 654 649 645 643 641 641 643 645 648 651 655 659 662 666 670 673 678 683 687 691 695 698 702 705 707 710 713 715 718 721 724 727 730 732 735 738 740 742 744 746 748 750 752 755 758 759 761
767 766 768 773 772 768 761 751 744 741 742 747 747 740 733 731 729 730 735 740 739 737 734 732 728 723 716 711 706 701 700 704 704 695 685 679 673 667 663 659 655 652 648 646 646 646 647 649 652 655 658 660 664 667 672 676 681 685 689 692 696 699 702 704 706 709 712 714 718 721 724 726 729 731 734 736 738 739 742 744 746 749 752 754 755 757
766 764 763 765 763 758 753 749 745 744 746 747 744 739 731 724 726 735 743 746 744 740 737 734 731 728 722 716 714 715 714 710 705 696 686 679 675 671 667 663 660 657 654 652 651 651 651 652 654 656 659 661 663 666 670 674 679 683 687 690 694 696 698 701 704 707 709 712 715 718 720 723 725 727 730 731 733 735 738 740 743 745 748 750 752 754
762 760 756 756 754 749 746 744 742 745 748 746 742 738 730 725 736 748 749 747 746 744 739 736 734 731 727 722 720 721 718 711 703 694 686 681 679 677 672 668 664 662 659 658 657 656 656 656 658 659 661 663 664 666 669 673 677 682 685 689 691 693 696 699 702 704 707 709 712 715 717 719 722 723 726 727 730 733 735 736 739 741 744 746 748 750
763 761 758 757 754 749 746 744 744 749 752 748 744 743 741 744 755 759 752 749 750 748 743 738 735 733 731 727 723 722 718 711 702 693 688 685 683 681 677 674 671 668 665 664 663 662 661 660 661 662 664 665 666 668 670 673 677 681 684 688 690 692 695 698 700 702 705 707 709 711 714 716 718 719 722 723 726 728 730 732 735 737 740 742 744 746
767 765 763 762 759 755 754 754 756 760 759 754 752 754 756 759 761 759 756 754 753 750 747 742 737 735 733 730 726 723 719 711 703 698 694 691 689 687 684 680 677 674 672 669 668 668 666 665 665 665 666 667 668 670 672 674 677 681 684 687 690 692 694 696 698 701 703 704 706 708 710 712 713 715 717 719 721 724 726 728 731 734 736 738 740 742
771 769 766 764 762 760 758 759 762 763 760 756 756 757 758 759 759 758 758 757 755 753 750 746 741 737 735 732 728 724 720 714 709 704 701 698 696 693 689 686 683 680 677 675 674 673 671 670 669 669 670 671 671 673 675 676 678 681 684 687 689 691 693 694 696 698 700 701 703 704 706 708 709 711 712 715 717 720 722 725 727 729 732 734 736 738
770 768 766 766 765 761 757 758 761 762 760 757 755 755 756 757 758 759 758 757 757 755 752 749 745 741 737 734 731 727 723 718 713 708 704 702 701 698 695 692 688 685 682 680 678 678 676 675 674 674 674 675 676 677 678 679 680 682 685 687 689 690 692 693 694 696 697 699 700 701 703 704 705 707 709 712 714 716 718 720 723 725 727 730 732 734
769 766 769 771 769 763 757 758 763 763 758 754 753 754 756 756 757 759 759 758 757 755 753 750 747 743 739 736 734 731 726 721 716 711 707 706 705 703 700 697 693 690 688 685 683 682 680 679 679 679 680 681 681 681 681 682 682 683 685 687 688 689 691 692 694 695 695 696 697 699 700 701 702 704 707 709 712 714 715 717 720 722 724 726 729 731
773 769 772 775 772 766 761 762 766 762 753 751 753 756 757 758 757 757 757 757 756 755 753 750 747 745 742 738 735 733 729 724 720 715 711 710 710 708 704 701 698 695 692 690 688 686 685 684 685 685 685 686 686 685 684 684 684 685 685 686 687 688 690 691 693 694 694 695 696 696 697 698 700 701 704 707 709 712 714 715 717 719 721 723 725 727
777 775 778 778 774 770 766 766 767 763 755 753 757 759 759 760 759 757 755 755 754 754 752 749 747 746 743 739 737 734 730 726 722 719 716 714 714 713 709 705 701 698 696 694 692 690 689 689 689 690 690 689 688 687 686 686 687 687 687 687 688 688 689 690 691 692 693 693 694 694 695 697 698 700 702 704 707 709 711 713 715 717 719 721 722 724
780 781 782 779 777 775 773 773 774 772 767 763 762 762 761 760 759 757 754 752 751 750 750 748 745 743 742 740 737 735 732 728 724 724 723 719 716 716 715 709 703 700 699 697 696 694 693 693 693 692 692 691 689 688 688 688 689 689 689 689 689 689 689 689 690 691 691 692 693 694 694 695 697 698 700 703 705 707 710 712 714 716 718 719 721 723
785 786 784 783 782 779 776 775 776 776 773 767 763 762 759 757 757 755 752 750 748 747 747 746 744 742 741 739 736 735 734 730 726 726 727 722 716 715 715 712 707 703 701 700 699 697 696 695 695 694 694 692 691 689 689 689 689 689 690 690 691 691 690 690 690 691 691 692 693 694 694 695 696 698 699 702 704 706 708 711 713 715 717 718 720 722